Beaufort, SC

8:12 PM EST on February 05, 2016 (GMT -0500)
Beaufort

Weather History for KARW - May, 2013

Change the Weather History Date:

Thursday, May 16, 2013

  Actual Average (KNBC) Record (KNBC)
Temperature  
Mean Temperature 73 °F -  
Max Temperature 82 °F 83 °F 94 °F (1941)
Min Temperature 64 °F 63 °F 49 °F (1939)
Cooling Degree Days 8    
Growing Degree Days 23 (Base 50)    
Moisture  
Dew Point 62 °F    
Average Humidity 68    
Maximum Humidity 94    
Minimum Humidity 51    
Precipitation  
Precipitation 0.00 in - - ()
Sea Level Pressure  
Sea Level Pressure 30.06 in    
Wind  
Wind Speed 7 mph (SW)    
Max Wind Speed 12 mph    
Max Gust Speed 18 mph    
Visibility 7 miles    
Events      
Averages and records for this station are not official NWS values.
T = Trace of Precipitation, MM = Missing Value Source: NWS Daily Summary

Daily Weather History Graph

Daily Weather History Graph

Search for Another Location

Airport or City:

Trip Planner

Search our weather history database for the weather conditions in past years. The results will help you decide how hot, cold, wet, or windy it might be!

Date:

Astronomy

May. 16, 2013 Rise Set
Actual Time 6:23 AM EDT 8:14 PM EDT
Civil Twilight 5:56 AM EDT 8:41 PM EDT
Nautical Twilight 5:23 AM EDT 9:14 PM EDT
Astronomical Twilight 4:49 AM EDT 9:49 PM EDT
Moon 11:49 AM EDT (5/16) 12:39 AM EDT (5/16)
Length of Visible Light 14h 45m
Length of Day
13h 51m
Waxing Crescent, 35% of the Moon is Illuminated
May 16
Waxing Crescent
May 18
First Quarter
May 25
Full
May 31
Last Quarter
Jun 8
New

Hourly Weather History & Observations

Time (EDT) Temp. Heat Index Dew Point Humidity Pressure Visibility Wind Dir Wind Speed Gust Speed Precip Events Conditions
12:15 AM 71.6 °F - 59.0 °F 64% 30.05 in 7.0 mi SSW 8.1 mph - N/A   Clear
12:35 AM 71.6 °F - 59.0 °F 64% 30.05 in 7.0 mi SSW 5.8 mph - N/A   Clear
12:55 AM 69.8 °F - 59.0 °F 68% 30.05 in 7.0 mi SW 6.9 mph - N/A   Clear
1:15 AM 69.8 °F - 59.0 °F 68% 30.05 in 7.0 mi SW 6.9 mph - N/A   Clear
1:35 AM 69.8 °F - 60.8 °F 73% 30.05 in 7.0 mi SW 5.8 mph - N/A   Clear
1:55 AM 69.8 °F - 60.8 °F 73% 30.04 in 7.0 mi SW 8.1 mph - N/A   Clear
2:15 AM 69.8 °F - 59.0 °F 68% 30.04 in 7.0 mi SW 6.9 mph - N/A   Clear
2:35 AM 69.8 °F - 59.0 °F 68% 30.03 in 7.0 mi SW 8.1 mph - N/A   Clear
2:55 AM 69.8 °F - 59.0 °F 68% 30.03 in 7.0 mi SW 8.1 mph - N/A   Clear
3:15 AM 69.8 °F - 59.0 °F 68% 30.03 in 7.0 mi SW 9.2 mph - N/A   Clear
3:35 AM 68.0 °F - 57.2 °F 68% 30.03 in 7.0 mi SW 8.1 mph - N/A   Clear
3:55 AM 68.0 °F - 57.2 °F 68% 30.03 in 7.0 mi SW 6.9 mph - N/A   Clear
4:15 AM 68.0 °F - 57.2 °F 68% 30.02 in 7.0 mi SW 6.9 mph - N/A   Clear
4:35 AM 68.0 °F - 55.4 °F 64% 30.02 in 10.0 mi SSW 5.8 mph - N/A   Clear
4:55 AM 68.0 °F - 57.2 °F 68% 30.02 in 7.0 mi SW 5.8 mph - N/A   Clear
5:15 AM 68.0 °F - 59.0 °F 73% 30.03 in 7.0 mi SW 6.9 mph - N/A   Clear
5:35 AM 68.0 °F - 59.0 °F 73% 30.03 in 7.0 mi SW 5.8 mph - N/A   Clear
5:55 AM 66.2 °F - 59.0 °F 78% 30.04 in 7.0 mi SSW 4.6 mph - N/A   Clear
6:15 AM 66.2 °F - 59.0 °F 78% 30.04 in 7.0 mi SW 4.6 mph - N/A   Clear
6:35 AM 64.4 °F - 59.0 °F 83% 30.04 in 7.0 mi SW 6.9 mph - N/A   Clear
6:55 AM 66.2 °F - 59.0 °F 78% 30.06 in 7.0 mi SW 9.2 mph - N/A   Clear
7:15 AM 68.0 °F - 59.0 °F 73% 30.06 in 7.0 mi SW 8.1 mph - N/A   Clear
7:35 AM 68.0 °F - 60.8 °F 78% 30.06 in 7.0 mi SW 6.9 mph - N/A   Clear
7:55 AM 69.8 °F - 60.8 °F 73% 30.07 in 5.0 mi SW 9.2 mph - N/A   Haze
8:15 AM 69.8 °F - 60.8 °F 73% 30.08 in 7.0 mi WSW 6.9 mph - N/A   Clear
8:35 AM 71.6 °F - 60.8 °F 69% 30.08 in 7.0 mi WSW 11.5 mph 18.4 mph N/A   Clear
8:55 AM 73.4 °F - 60.8 °F 65% 30.09 in 7.0 mi WSW 11.5 mph - N/A   Clear
9:15 AM 75.2 °F - 60.8 °F 61% 30.09 in 5.0 mi West 10.4 mph - N/A   Haze
9:35 AM 75.2 °F - 60.8 °F 61% 30.09 in 7.0 mi WSW 8.1 mph - N/A   Clear
9:55 AM 77.0 °F - 60.8 °F 57% 30.09 in 7.0 mi WSW 9.2 mph - N/A   Clear
10:15 AM 77.0 °F - 62.6 °F 61% 30.09 in 7.0 mi West 9.2 mph - N/A   Clear
10:35 AM 77.0 °F - 62.6 °F 61% 30.10 in 7.0 mi WSW 9.2 mph - N/A   Clear
10:55 AM 78.8 °F - 60.8 °F 54% 30.10 in 7.0 mi WSW 11.5 mph - N/A   Clear
11:15 AM 80.6 °F 81.5 °F 60.8 °F 51% 30.10 in 7.0 mi West 10.4 mph - N/A   Clear
11:35 AM 80.6 °F 81.8 °F 62.6 °F 54% 30.11 in 5.0 mi West 9.2 mph - N/A   Haze
11:55 AM 80.6 °F 81.8 °F 62.6 °F 54% 30.11 in 7.0 mi West 8.1 mph - N/A   Clear
12:15 PM 80.6 °F 81.8 °F 62.6 °F 54% 30.10 in 7.0 mi West 9.2 mph - N/A   Scattered Clouds
12:35 PM 78.8 °F - 62.6 °F 57% 30.09 in 3.0 mi WSW 4.6 mph - N/A   Haze
12:55 PM 78.8 °F - 62.6 °F 57% 30.09 in 7.0 mi WSW 5.8 mph - N/A   Clear
1:15 PM 77.0 °F - 62.6 °F 61% 30.09 in 7.0 mi SW 6.9 mph - N/A   Clear
1:35 PM 77.0 °F - 62.6 °F 61% 30.09 in 7.0 mi WSW 10.4 mph - N/A   Clear
1:55 PM 77.0 °F - 62.6 °F 61% 30.08 in 7.0 mi WSW 6.9 mph - N/A   Clear
2:15 PM 77.0 °F - 64.4 °F 65% 30.08 in 5.0 mi WSW 6.9 mph - N/A   Haze
2:35 PM 80.6 °F 81.8 °F 62.6 °F 54% 30.06 in 7.0 mi SSW 6.9 mph - N/A   Clear
3:15 PM 80.6 °F 81.8 °F 62.6 °F 54% 30.06 in 7.0 mi SW 4.6 mph - N/A   Clear
3:35 PM 80.6 °F 81.8 °F 62.6 °F 54% 30.05 in 7.0 mi SW 5.8 mph - N/A   Clear
3:55 PM 80.6 °F 81.8 °F 62.6 °F 54% 30.04 in 7.0 mi WSW 6.9 mph - N/A   Clear
4:15 PM 80.6 °F 81.8 °F 62.6 °F 54% 30.04 in 7.0 mi SW 6.9 mph - N/A   Clear
4:35 PM 80.6 °F 81.8 °F 62.6 °F 54% 30.03 in 7.0 mi SW 4.6 mph - N/A   Clear
4:55 PM 80.6 °F 81.8 °F 62.6 °F 54% 30.03 in 7.0 mi SW 9.2 mph - N/A   Clear
5:15 PM 82.4 °F 83.4 °F 62.6 °F 51% 30.03 in 7.0 mi WSW 6.9 mph - N/A   Clear
5:35 PM 82.4 °F 83.4 °F 62.6 °F 51% 30.03 in 7.0 mi WSW 5.8 mph - N/A   Clear
6:15 PM 80.6 °F 82.3 °F 64.4 °F 58% 30.02 in 7.0 mi SSW 4.6 mph - N/A   Clear
6:35 PM 78.8 °F - 66.2 °F 65% 30.03 in 7.0 mi SSW 4.6 mph - N/A   Clear
6:55 PM 78.8 °F - 64.4 °F 61% 30.02 in 7.0 mi SSE 4.6 mph - N/A   Clear
7:15 PM 77.0 °F - 64.4 °F 65% 30.03 in 7.0 mi South 3.5 mph - N/A   Clear
7:35 PM 77.0 °F - 64.4 °F 65% 30.03 in 5.0 mi South 4.6 mph - N/A   Haze
7:55 PM 75.2 °F - 64.4 °F 69% 30.03 in 7.0 mi South 4.6 mph - N/A   Clear
8:15 PM 73.4 °F - 64.4 °F 73% 30.04 in 7.0 mi South 5.8 mph - N/A   Clear
8:35 PM 71.6 °F - 66.2 °F 83% 30.04 in 10.0 mi South 6.9 mph - N/A   Clear
8:55 PM 71.6 °F - 68.0 °F 88% 30.04 in 7.0 mi South 3.5 mph - N/A   Clear
9:15 PM 71.6 °F - 68.0 °F 88% 30.05 in 7.0 mi South 4.6 mph - N/A   Clear
9:35 PM 71.6 °F - 68.0 °F 88% 30.05 in 7.0 mi South 5.8 mph - N/A   Clear
9:55 PM 71.6 °F - 68.0 °F 88% 30.06 in 7.0 mi South 4.6 mph - N/A   Clear
10:15 PM 71.6 °F - 68.0 °F 88% 30.06 in 7.0 mi SSW 3.5 mph - N/A   Clear
10:35 PM 69.8 °F - 68.0 °F 94% 30.06 in 7.0 mi SSW 4.6 mph - N/A   Clear
10:55 PM 69.8 °F - 68.0 °F 94% 30.06 in 7.0 mi SSW 5.8 mph - N/A   Clear
11:15 PM 69.8 °F - 68.0 °F 94% 30.07 in 7.0 mi SSW 5.8 mph - N/A   Clear
11:35 PM 69.8 °F - 68.0 °F 94% 30.07 in 7.0 mi SSW 4.6 mph - N/A   Clear
11:55 PM 69.8 °F - 68.0 °F 94% 30.06 in 7.0 mi SSW 4.6 mph - N/A   Clear